• In Czech Republic
  • List of Countries
  • For 7 days
  • Water Temperature
  • Satellite Maps
  • Weather Map
  • Weather Widgets
  • user-avatar
    Login

    Hourly Weather Ibb

    Today, 17 January, Wednesday

    Time Temperature Precipitation Wind Pressure Humidity
    00:00 +13°C° 0 mm 1 mps 596 mmHg 51%
    01:00 +13°C° 0 mm 1 mps 596 mmHg 51%
    02:00 +11°C° 0 mm 0 mps 595 mmHg 52%
    03:00 +11°C° 0 mm 0 mps 595 mmHg 52%
    04:00 +10°C° 0 mm 0 mps 595 mmHg 52%
    05:00 +10°C° 0 mm 0 mps 594 mmHg 51%
    06:00 +10°C° 0 mm 0 mps 594 mmHg 51%
    07:00 +11°C° 0 mm 0 mps 595 mmHg 46%
    08:00 +14°C° 0 mm 1 mps 596 mmHg 41%
    09:00 +15°C° 0 mm 1 mps 597 mmHg 36%
    10:00 +18°C° 0 mm 1 mps 597 mmHg 34%
    11:00 +18°C° 0 mm 2 mps 597 mmHg 32%
    12:00 +19°C° 0 mm 2 mps 598 mmHg 29%
    13:00 +20°C° 0 mm 3 mps 597 mmHg 30%
    14:00 +20°C° 0 mm 3 mps 597 mmHg 31%
    15:00 +20°C° 0 mm 3 mps 597 mmHg 32%
    16:00 +19°C° 0 mm 3 mps 596 mmHg 37%
    17:00 +18°C° 0 mm 3 mps 596 mmHg 42%
    18:00 +17°C° 0 mm 3 mps 595 mmHg 47%
    19:00 +17°C° 0 mm 2 mps 595 mmHg 52%
    20:00 +16°C° 0 mm 1 mps 595 mmHg 57%
    21:00 +15°C° 0 mm 1 mps 595 mmHg 61%
    22:00 +15°C° 0 mm 1 mps 595 mmHg 64%
    23:00 +14°C° 0 mm 1 mps 595 mmHg 66%

    Tomorrow, 18 January, Thursday

    Time Temperature Precipitation Wind Pressure Humidity
    00:00 +13°C° 0 mm 0 mps 595 mmHg 68%
    01:00 +12°C° 0 mm 0 mps 594 mmHg 70%
    02:00 +12°C° 0 mm 0 mps 594 mmHg 72%
    03:00 +12°C° 0 mm 0 mps 593 mmHg 73%
    04:00 +11°C° 0 mm 0 mps 593 mmHg 73%
    05:00 +11°C° 0 mm 0 mps 593 mmHg 74%
    06:00 +10°C° 0 mm 0 mps 593 mmHg 74%
    07:00 +12°C° 0 mm 0 mps 594 mmHg 65%
    08:00 +14°C° 0 mm 1 mps 596 mmHg 55%
    09:00 +16°C° 0 mm 1 mps 597 mmHg 46%
    10:00 +18°C° 0 mm 1 mps 597 mmHg 41%
    11:00 +18°C° 0 mm 2 mps 597 mmHg 36%
    12:00 +20°C° 0 mm 3 mps 598 mmHg 31%
    13:00 +20°C° 0 mm 3 mps 597 mmHg 31%
    14:00 +20°C° 0 mm 3 mps 597 mmHg 32%
    15:00 +20°C° 0 mm 3 mps 596 mmHg 32%
    16:00 +19°C° 0 mm 3 mps 596 mmHg 35%
    17:00 +18°C° 0 mm 3 mps 596 mmHg 39%
    18:00 +17°C° 0 mm 3 mps 595 mmHg 43%
    19:00 +17°C° 0 mm 2 mps 596 mmHg 46%
    20:00 +16°C° 0 mm 1 mps 596 mmHg 49%
    21:00 +15°C° 0 mm 1 mps 596 mmHg 52%
    22:00 +15°C° 0 mm 1 mps 596 mmHg 53%
    23:00 +13°C° 0 mm 0 mps 595 mmHg 55%

    Day after tomorrow, 19 January, Friday

    Time Temperature Precipitation Wind Pressure Humidity
    00:00 +13°C° 0 mm 0 mps 595 mmHg 56%
    01:00 +12°C° 0 mm 0 mps 595 mmHg 58%
    02:00 +12°C° 0 mm 0 mps 594 mmHg 59%
    03:00 +11°C° 0 mm 0 mps 594 mmHg 61%
    04:00 +11°C° 0 mm 0 mps 594 mmHg 63%
    05:00 +11°C° 0 mm 0 mps 594 mmHg 65%
    06:00 +10°C° 0 mm 0 mps 594 mmHg 66%
    07:00 +12°C° 0 mm 0 mps 595 mmHg 58%
    08:00 +14°C° 0 mm 1 mps 596 mmHg 51%
    09:00 +16°C° 0 mm 1 mps 597 mmHg 43%
    10:00 +18°C° 0 mm 1 mps 597 mmHg 38%
    11:00 +18°C° 0 mm 2 mps 598 mmHg 34%
    12:00 +19°C° 0 mm 2 mps 598 mmHg 30%
    13:00 +20°C° 0 mm 3 mps 597 mmHg 30%
    14:00 +20°C° 0 mm 3 mps 597 mmHg 30%
    15:00 +21°C° 0 mm 4 mps 596 mmHg 30%
    16:00 +20°C° 0 mm 3 mps 596 mmHg 34%
    17:00 +19°C° 0 mm 3 mps 596 mmHg 38%
    18:00 +18°C° 0 mm 3 mps 596 mmHg 42%
    19:00 +17°C° 0 mm 2 mps 596 mmHg 47%
    20:00 +16°C° 0 mm 2 mps 597 mmHg 51%
    21:00 +15°C° 0 mm 1 mps 597 mmHg 56%
    22:00 +15°C° 0 mm 1 mps 597 mmHg 58%
    23:00 +14°C° 0 mm 1 mps 596 mmHg 61%

    20 January, Saturday

    Time Temperature Precipitation Wind Pressure Humidity
    00:00 +14°C° 0 mm 1 mps 596 mmHg 64%
    01:00 +14°C° 0 mm 1 mps 596 mmHg 67%
    02:00 +13°C° 0 mm 1 mps 595 mmHg 70%
    03:00 +13°C° 0 mm 1 mps 595 mmHg 73%
    04:00 +11°C° 0 mm 0 mps 595 mmHg 75%
    05:00 +11°C° 0 mm 0 mps 595 mmHg 77%
    06:00 +10°C° 0 mm 0 mps 595 mmHg 79%
    07:00 +13°C° 0 mm 1 mps 596 mmHg 71%
    08:00 +14°C° 0 mm 1 mps 597 mmHg 64%
    09:00 +15°C° 0 mm 1 mps 598 mmHg 56%
    10:00 +18°C° 0 mm 1 mps 598 mmHg 51%
    11:00 +18°C° 0 mm 2 mps 599 mmHg 46%
    12:00 +19°C° 0 mm 2 mps 599 mmHg 41%
    13:00 +19°C° 0 mm 3 mps 598 mmHg 43%
    14:00 +20°C° 0 mm 3 mps 598 mmHg 44%
    15:00 +20°C° 0 mm 3 mps 597 mmHg 46%
    16:00 +19°C° 0 mm 3 mps 597 mmHg 52%
    17:00 +18°C° 0 mm 3 mps 597 mmHg 57%
    18:00 +17°C° 0 mm 2 mps 597 mmHg 63%
    19:00 +16°C° 0 mm 2 mps 597 mmHg 65%
    20:00 +16°C° 0 mm 2 mps 597 mmHg 67%
    21:00 +15°C° 0 mm 1 mps 598 mmHg 70%
    22:00 +15°C° 0.1 mm 1 mps 597 mmHg 68%
    23:00 +15°C° 0.1 mm 1 mps 597 mmHg 67%

    21 January, Sunday

    Time Temperature Precipitation Wind Pressure Humidity
    00:00 +15°C° 0.1 mm 1 mps 597 mmHg 66%
    01:00 +14°C° 0 mm 1 mps 596 mmHg 66%
    02:00 +14°C° 0 mm 1 mps 596 mmHg 66%
    03:00 +13°C° 0 mm 1 mps 596 mmHg 67%
    04:00 +13°C° 0 mm 1 mps 596 mmHg 66%
    05:00 +13°C° 0 mm 1 mps 596 mmHg 65%
    06:00 +12°C° 0 mm 1 mps 596 mmHg 64%
    07:00 +13°C° 0 mm 1 mps 597 mmHg 57%
    08:00 +14°C° 0 mm 1 mps 598 mmHg 50%
    09:00 +15°C° 0 mm 2 mps 599 mmHg 43%
    10:00 +17°C° 0 mm 2 mps 599 mmHg 38%
    11:00 +18°C° 0 mm 2 mps 599 mmHg 34%
    12:00 +19°C° 0 mm 2 mps 599 mmHg 29%
    13:00 +19°C° 0 mm 2 mps 599 mmHg 31%
    14:00 +20°C° 0 mm 3 mps 598 mmHg 32%
    15:00 +20°C° 0 mm 3 mps 598 mmHg 34%
    16:00 +19°C° 0 mm 3 mps 597 mmHg 41%
    17:00 +18°C° 0 mm 3 mps 597 mmHg 49%
    18:00 +17°C° 0 mm 3 mps 597 mmHg 56%
    19:00 +16°C° 0 mm 2 mps 597 mmHg 60%
    20:00 +16°C° 0 mm 2 mps 597 mmHg 64%
    21:00 +15°C° 0 mm 1 mps 598 mmHg 67%
    22:00 +15°C° 0 mm 1 mps 597 mmHg 65%
    23:00 +15°C° 0 mm 1 mps 597 mmHg 63%

    22 January, Monday

    Time Temperature Precipitation Wind Pressure Humidity
    00:00 +14°C° 0 mm 1 mps 596 mmHg 61%
    01:00 +14°C° 0 mm 1 mps 596 mmHg 60%
    02:00 +14°C° 0 mm 1 mps 595 mmHg 59%
    03:00 +13°C° 0 mm 1 mps 595 mmHg 58%
    04:00 +13°C° 0 mm 1 mps 595 mmHg 57%
    05:00 +12°C° 0 mm 1 mps 595 mmHg 56%
    06:00 +12°C° 0 mm 1 mps 595 mmHg 55%
    07:00 +13°C° 0 mm 1 mps 596 mmHg 50%
    08:00 +15°C° 0 mm 1 mps 597 mmHg 46%
    09:00 +16°C° 0 mm 1 mps 598 mmHg 41%
    10:00 +18°C° 0 mm 1 mps 598 mmHg 38%
    11:00 +19°C° 0 mm 2 mps 598 mmHg 36%
    12:00 +20°C° 0 mm 2 mps 598 mmHg 33%
    13:00 +20°C° 0 mm 3 mps 598 mmHg 33%
    14:00 +21°C° 0 mm 3 mps 597 mmHg 33%
    15:00 +21°C° 0 mm 3 mps 597 mmHg 33%
    16:00 +20°C° 0 mm 3 mps 597 mmHg 39%
    17:00 +19°C° 0 mm 3 mps 596 mmHg 45%
    18:00 +18°C° 0 mm 3 mps 596 mmHg 51%
    19:00 +17°C° 0 mm 2 mps 596 mmHg 56%
    20:00 +16°C° 0 mm 2 mps 596 mmHg 62%
    21:00 +15°C° 0 mm 1 mps 596 mmHg 67%
    22:00 +15°C° 0 mm 1 mps 596 mmHg 68%
    23:00 +15°C° 0 mm 1 mps 595 mmHg 68%
    Show more